Volver al catálogo

DELTA 1 DEB

ActivoSSO
NORAD 21516·DEBRIS·🇺🇸 United States

Lanzado Jun 12, 1975 desde Vandenberg Space Force Base

Loading…

Próximos Pases (próximas 24 horas)

TLE

ActualizadoSource: Space-Track

Época: Sep 14, 2026, 07:42 UTC

1 21516U 75052GM  26257.32091003  .00000118  00000-0  32205-3 0  9999
2 21516  99.8265  27.1563 0070717  97.5246 291.6102 13.33022711706136

Sigue DELTA 1 DEB en tiempo real con AllMySat

Download on the App Store